Date String (YYYY-MM-DD hh:mm:ss) UTC,Instrument flags,Ambient pressure (hPa),Sample flow (lpm),Bypass flow (lpm),Sample temperature (°C),Ambient temperature (°C),ASC tube jacket temperature (°C),LED temperature (°C),Box temperature (°C),Sample RH (%),Span deviation,Mass concentration (μg/m³),Mass concentration (μg/m³),Mass concentration (μg/m³)
DateTimeUTC,F1_M11,P_M11,Q1_M11,Q2_M11,T1_M11,T2_M11,T3_M11,T4_M11,T5_M11,U1_M11,ZSPAN_M11,X0_M11,X2_M11,X1_M11
2022-10-21 07:00:00,,0822.0,5.01,0.00,30.1,28.7,00.0,38.9,32.0,06.8,0000.0,0006.42,0001.43,0000.92
2022-10-21 07:01:00,,0822.0,5.01,0.00,30.1,28.6,00.0,38.9,32.0,06.8,0000.0,0006.46,0001.47,0000.92
2022-10-21 07:02:00,,0822.0,5.01,0.00,30.1,28.6,00.0,38.9,32.0,06.7,0000.0,0006.08,0001.44,0000.92
2022-10-21 07:03:00,,0822.1,5.00,0.00,30.1,28.6,00.0,38.9,32.0,06.7,0000.0,0005.96,0001.43,0000.93
2022-10-21 07:04:00,,0822.1,5.01,0.00,30.1,28.6,00.0,38.9,32.0,06.7,0000.0,0003.51,0001.44,0000.94
2022-10-21 07:05:00,,0821.8,4.98,0.00,30.1,28.7,00.0,38.9,32.0,06.7,0000.0,0003.06,0001.43,0000.95
2022-10-21 07:06:00,,0821.8,4.99,0.00,30.1,28.7,00.0,38.9,32.0,06.8,0000.0,0002.70,0001.41,0000.95
2022-10-21 07:07:00,,0822.0,5.01,0.00,30.1,28.7,00.0,38.9,32.0,06.7,0000.0,0004.46,0001.41,0000.96
2022-10-21 07:08:00,,0821.8,5.01,0.00,30.1,28.7,00.0,39.0,32.0,06.7,0000.0,0004.68,0001.44,0000.98
2022-10-21 07:09:00,,0822.2,5.00,0.00,30.1,28.7,00.0,39.0,32.0,06.7,0000.0,0005.26,0001.48,0000.98
2022-10-21 07:10:00,,0822.1,5.00,0.00,30.1,28.6,00.0,39.0,32.0,06.8,0000.0,0005.74,0001.50,0000.98
2022-10-21 07:11:00,,0822.0,5.01,0.00,30.1,28.6,00.0,39.0,31.9,06.7,0000.0,0005.78,0001.52,0000.98
2022-10-21 07:12:00,,0822.0,4.99,0.00,30.1,28.6,00.0,39.0,31.9,06.8,0000.0,0005.76,0001.52,0000.99
2022-10-21 07:13:00,,0822.1,5.00,0.00,30.1,28.6,00.0,39.0,31.9,06.8,0000.0,0006.10,0001.60,0001.00
2022-10-21 07:14:00,,0822.4,5.00,0.00,30.1,28.6,00.0,39.0,31.9,06.8,0000.0,0006.10,0001.61,0001.00
2022-10-21 07:15:00,,0822.3,5.00,0.00,30.1,28.6,00.0,39.0,31.9,06.7,0000.0,0007.15,0001.61,0000.98
2022-10-21 07:16:00,,0821.8,5.01,0.00,30.1,28.6,00.0,39.0,31.9,06.8,0000.0,0007.39,0001.58,0000.96
2022-10-21 07:17:00,,0821.8,5.00,0.00,30.1,28.7,00.0,39.0,32.0,06.8,0000.0,0007.51,0001.59,0000.97
2022-10-21 07:18:00,,0821.8,5.00,0.00,30.1,28.7,00.0,39.0,32.0,06.7,0000.0,0005.80,0001.58,0000.97
2022-10-21 07:19:00,,0821.8,4.98,0.00,30.1,28.7,00.0,39.0,32.0,06.7,0000.0,0005.69,0001.56,0000.97
2022-10-21 07:20:00,,0821.8,5.01,0.00,30.1,28.7,00.0,39.0,32.0,06.7,0000.0,0005.10,0001.55,0000.97
2022-10-21 07:21:00,,0821.8,5.00,0.00,30.1,28.7,00.0,39.0,32.0,06.7,0000.0,0005.16,0001.51,0000.98
2022-10-21 07:22:00,,0821.8,5.00,0.00,30.2,28.8,00.0,39.0,32.0,06.7,0000.0,0005.47,0001.49,0000.98
2022-10-21 07:23:00,,0821.8,5.00,0.00,30.2,28.8,00.0,39.0,32.0,06.7,0000.0,0005.50,0001.49,0000.98
2022-10-21 07:24:00,,0821.8,4.99,0.00,30.2,28.8,00.0,39.0,32.0,06.7,0000.0,0005.25,0001.45,0000.98
2022-10-21 07:25:00,,0821.9,4.99,0.00,30.2,28.8,00.0,39.0,32.0,06.7,0000.0,0005.65,0001.45,0001.00
2022-10-21 07:26:00,,0821.8,5.00,0.00,30.2,28.7,00.0,39.0,32.0,06.6,0000.0,0004.95,0001.46,0001.03
2022-10-21 07:27:00,,0821.8,5.00,0.00,30.2,28.6,00.0,39.0,32.0,06.7,0000.0,0004.72,0001.50,0001.05
2022-10-21 07:28:00,,0821.8,5.00,0.00,30.2,28.6,00.0,39.0,32.0,06.8,0000.0,0004.39,0001.53,0001.06
2022-10-21 07:29:00,,0821.8,4.98,0.00,30.2,28.7,00.0,39.0,32.0,06.9,0000.0,0004.50,0001.58,0001.09
2022-10-21 07:30:00,,0821.8,4.99,0.00,30.2,28.7,00.0,39.0,32.0,06.8,0000.0,0005.00,0001.59,0001.11
2022-10-21 07:31:00,,0821.8,5.01,0.00,30.2,28.7,00.0,39.0,32.0,07.0,0000.0,0004.94,0001.59,0001.13
2022-10-21 07:32:00,,0821.8,5.00,0.00,30.2,28.7,00.0,39.0,32.0,07.1,0000.0,0004.34,0001.59,0001.15
2022-10-21 07:33:00,,0821.7,5.01,0.00,30.2,28.7,00.0,39.0,32.0,07.1,0000.0,0004.04,0001.59,0001.17
2022-10-21 07:34:00,,0821.7,5.00,0.00,30.2,28.7,00.0,39.0,32.0,07.2,0000.0,0004.08,0001.59,0001.18
2022-10-21 07:35:00,,0821.8,4.99,0.00,30.2,28.7,00.0,39.0,32.0,07.2,0000.0,0004.23,0001.61,0001.19
2022-10-21 07:36:00,,0821.8,5.00,0.00,30.2,28.7,00.0,39.0,32.0,07.2,0000.0,0003.90,0001.61,0001.19
2022-10-21 07:37:00,,0821.8,5.00,0.00,30.2,28.7,00.0,39.0,32.0,07.2,0000.0,0003.53,0001.61,0001.19
2022-10-21 07:38:00,,0821.8,5.00,0.00,30.2,28.7,00.0,39.0,32.0,07.3,0000.0,0003.61,0001.61,0001.19
2022-10-21 07:39:00,,0821.8,5.00,0.00,30.2,28.7,00.0,39.0,32.0,07.3,0000.0,0004.66,0001.62,0001.21
2022-10-21 07:40:00,,0821.8,5.00,0.00,30.2,28.7,00.0,39.0,32.0,07.3,0000.0,0007.07,0001.64,0001.21
2022-10-21 07:41:00,,0821.8,5.00,0.00,30.2,28.7,00.0,39.1,32.0,07.3,0000.0,0006.83,0001.64,0001.20
2022-10-21 07:42:00,,0821.8,5.00,0.00,30.2,28.7,00.0,39.1,32.0,07.3,0000.0,0006.84,0001.63,0001.19
2022-10-21 07:43:00,,0821.8,5.00,0.00,30.2,28.7,00.0,39.1,32.0,07.3,0000.0,0006.83,0001.64,0001.19
2022-10-21 07:44:00,,0821.8,5.00,0.00,30.2,28.7,00.0,39.1,32.0,07.3,0000.0,0006.73,0001.62,0001.18
2022-10-21 07:45:00,,0821.8,5.00,0.00,30.2,28.7,00.0,39.1,32.0,07.3,0000.0,0006.74,0001.64,0001.18
2022-10-21 07:46:00,,0821.8,5.00,0.00,30.2,28.7,00.0,39.1,32.0,07.3,0000.0,0006.67,0001.67,0001.18
2022-10-21 07:47:00,,0821.8,5.00,0.00,30.2,28.7,00.0,39.1,32.0,07.2,0000.0,0006.68,0001.68,0001.17
2022-10-21 07:48:00,,0821.8,4.99,0.00,30.2,28.7,00.0,39.1,32.0,07.3,0000.0,0006.62,0001.69,0001.17
2022-10-21 07:49:00,,0821.8,4.98,0.00,30.2,28.7,00.0,39.1,32.0,07.3,0000.0,0006.48,0001.65,0001.16
2022-10-21 07:50:00,,0821.8,5.02,0.00,30.2,28.7,00.0,39.1,32.0,07.2,0000.0,0005.44,0001.60,0001.15
2022-10-21 07:51:00,,0821.8,5.00,0.00,30.2,28.7,00.0,39.1,32.0,07.3,0000.0,0003.59,0001.59,0001.14
2022-10-21 07:52:00,,0821.8,4.98,0.00,30.2,28.7,00.0,39.1,32.0,07.3,0000.0,0003.18,0001.59,0001.14
2022-10-21 07:53:00,,0821.8,5.01,0.00,30.2,28.7,00.0,39.1,32.0,07.3,0000.0,0003.16,0001.60,0001.14
2022-10-21 07:54:00,,0821.8,5.00,0.00,30.2,28.7,00.0,39.1,32.0,07.2,0000.0,0003.15,0001.60,0001.15
2022-10-21 07:55:00,,0821.8,4.99,0.00,30.2,28.7,00.0,39.1,32.0,07.2,0000.0,0003.30,0001.61,0001.14
2022-10-21 07:56:00,,0821.8,5.00,0.00,30.2,28.7,00.0,39.1,32.0,07.3,0000.0,0003.41,0001.62,0001.14
2022-10-21 07:57:00,,0821.8,4.99,0.00,30.2,28.7,00.0,39.1,32.0,07.3,0000.0,0003.89,0001.62,0001.14
2022-10-21 07:58:00,,0821.8,5.01,0.00,30.2,28.7,00.0,39.1,32.0,07.4,0000.0,0003.86,0001.60,0001.15
2022-10-21 07:59:00,,0821.9,4.99,0.00,30.2,28.7,00.0,39.1,32.0,07.4,0000.0,0003.82,0001.60,0001.16
